Location: Peterborough
(44.3091°N, 78.3197°W)
Time: 00:47:27
(UTC-04:00)

SR - Pass Details

Date: 25 March 2023
Orbit: 581 x 867 km, 66.7° (Epoch: 02 June)

Event Time Altitude Azimuth Distance (km) Brightness Sun altitude
Rises 04:00:31 0° 225° (SW) 3,003 - -31.6°
Reaches altitude 10° 04:02:57 10° 231° (SW) 2,050 - -31.3°
Maximum altitude 04:07:24 49° 306° (NW) 804 - -30.7°
Exits shadow 04:09:32 26° 8° (N) 1,196 ? -30.4°
Drops below altitude 10° 04:11:37 10° 22° (NNE) 1,941 ? -30.1°
Sets 04:13:53 0° 28° (NNE) 2,827 ? -29.8°
